Brookings, OR

11:54 AM PDT on September 23, 2017 (GMT -0700)
Brookings State

Weather History for KBOK - February, 2013

Change the Weather History Date:

Friday, February 22, 2013

  Actual Average Record
Temperature  
Mean Temperature 42 °F -  
Max Temperature 46 °F 55 °F 72 °F (1964)
Min Temperature 39 °F 42 °F 30 °F (1942)
Degree Days  
Heating Degree Days 22    
Moisture  
Dew Point 43 °F    
Average Humidity 99    
Maximum Humidity 100    
Minimum Humidity 87    
Precipitation  
Precipitation 0.60 in - - ()
Sea Level Pressure  
Sea Level Pressure 30.23 in    
Wind  
Wind Speed 7 mph (SSE)    
Max Wind Speed 15 mph    
Max Gust Speed 18 mph    
Visibility 4 miles    
Events Fog , Rain    
Averages and records for this station are not official NWS values.
T = Trace of Precipitation, MM = Missing Value Source: NWS Daily Summary

Daily Weather History Graph

Daily Weather History Graph

Search for Another Location

Airport or City:

Trip Planner

Search our weather history database for the weather conditions in past years. The results will help you decide how hot, cold, wet, or windy it might be!

Date:

Astronomy

Feb. 22, 2013 Rise Set
Actual Time 7:02 AM PST 5:59 PM PST
Civil Twilight 6:34 AM PST 6:27 PM PST
Nautical Twilight 6:01 AM PST 6:59 PM PST
Astronomical Twilight 5:29 AM PST 7:32 PM PST
Moon 3:14 PM PST (2/22) 4:53 AM PST (2/22)
Length of Visible Light 11h 53m
Length of Day
10h 56m
Waxing Gibbous, 91% of the Moon is Illuminated
Feb 22
Waxing Gibbous
Feb 25
Full
Mar 4
Last Quarter
Mar 11
New
Mar 19
First Quarter

Hourly Weather History & Observations

Time (PST) Temp. Windchill Dew Point Humidity Pressure Visibility Wind Dir Wind Speed Gust Speed Precip Events Conditions
12:56 AM 41.9 °F 39.0 °F 41.0 °F 97% 30.32 in 10.0 mi ENE 4.6 mph - N/A   Overcast
1:56 AM 41.0 °F - 41.0 °F 100% 30.32 in 10.0 mi Calm Calm - N/A   Overcast
2:56 AM 41.0 °F 39.0 °F 41.0 °F 100% 30.31 in 10.0 mi East 3.5 mph - N/A   Overcast
4:56 AM 39.9 °F 37.8 °F 39.9 °F 100% 30.30 in 10.0 mi ENE 3.5 mph - N/A   Overcast
5:56 AM 39.9 °F 37.8 °F 39.9 °F 100% 30.29 in 10.0 mi SE 3.5 mph - N/A   Overcast
6:56 AM 39.9 °F 37.8 °F 39.9 °F 100% 30.27 in 10.0 mi Variable 3.5 mph - N/A   Partly Cloudy
7:56 AM 41.0 °F 39.0 °F 41.0 °F 100% 30.28 in 10.0 mi Variable 3.5 mph - N/A   Mostly Cloudy
8:56 AM 43.0 °F 40.3 °F 41.0 °F 93% 30.30 in 10.0 mi ESE 4.6 mph - N/A   Overcast
10:56 AM 45.0 °F 41.2 °F 41.9 °F 89% 30.29 in 5.0 mi SE 6.9 mph - N/A   Overcast
11:04 AM 46.4 °F 43.5 °F 42.8 °F 87% 30.28 in 5.0 mi SSE 5.8 mph - N/A   Overcast
11:56 AM 46.9 °F - 43.9 °F 89% 30.29 in 6.0 mi South 9.2 mph - N/A   Overcast
12:12 PM 46.4 °F 42.4 °F 44.6 °F 93% 30.28 in 7.0 mi South 8.1 mph - N/A   Overcast
12:26 PM 46.4 °F 41.1 °F 44.6 °F 93% 30.26 in 8.0 mi South 11.5 mph - N/A   Overcast
12:56 PM 46.9 °F - 45.0 °F 93% 30.26 in 7.0 mi South 9.2 mph - N/A   Overcast
1:56 PM 45.9 °F 41.2 °F 45.0 °F 97% 30.24 in 8.0 mi South 9.2 mph - N/A   Overcast
2:23 PM 44.6 °F 38.8 °F 44.6 °F 100% 30.22 in 2.5 mi South 11.5 mph - 0.00 in Rain Light Rain
2:29 PM 44.6 °F 39.2 °F 44.6 °F 100% 30.21 in 1.8 mi SSE 10.4 mph - 0.02 in Rain Rain
2:45 PM 44.6 °F 41.4 °F 44.6 °F 100% 30.21 in 2.0 mi South 5.8 mph - 0.05 in Rain Light Rain
2:56 PM 45.0 °F 41.2 °F 45.0 °F 100% 30.25 in 2.0 mi South 6.9 mph - 0.06 in Rain Rain
3:03 PM 44.6 °F 40.2 °F 44.6 °F 100% 30.23 in 1.5 mi South 8.1 mph - 0.02 in Rain Light Rain
3:12 PM 44.6 °F 38.8 °F 44.6 °F 100% 30.23 in 1.5 mi SSE 11.5 mph - 0.03 in Rain Rain
3:42 PM 44.6 °F 39.2 °F 44.6 °F 100% 30.21 in 1.0 mi South 10.4 mph - 0.07 in Rain Rain
3:56 PM 43.9 °F 38.8 °F 43.9 °F 100% 30.22 in 1.2 mi SSE 9.2 mph - 0.08 in Rain Light Rain
4:03 PM 44.6 °F 40.7 °F 44.6 °F 100% 30.22 in 0.8 mi Variable 6.9 mph - 0.02 in Rain Light Rain
4:18 PM 44.6 °F 38.8 °F 44.6 °F 100% 30.20 in 0.5 mi SSE 11.5 mph - 0.04 in Fog , Rain Rain
4:45 PM 44.6 °F 38.4 °F 44.6 °F 100% 30.19 in 1.0 mi SSE 12.7 mph - 0.09 in Rain Light Rain
4:56 PM 43.9 °F 38.3 °F 43.9 °F 100% 30.19 in 0.8 mi SE 10.4 mph - 0.11 in Rain Rain
5:07 PM 42.8 °F 36.6 °F 42.8 °F 100% 30.17 in 1.2 mi SSE 11.5 mph - 0.01 in Rain Light Rain
5:20 PM 42.8 °F 37.5 °F 42.8 °F 100% 30.18 in 0.8 mi South 9.2 mph - 0.03 in Rain Light Rain
5:48 PM 42.8 °F 35.8 °F 42.8 °F 100% 30.18 in 0.8 mi South 13.8 mph - 0.11 in Rain Light Rain
5:56 PM 43.0 °F 37.7 °F 43.0 °F 100% 30.19 in 0.8 mi SSE 9.2 mph - 0.13 in Rain Light Rain
6:04 PM 42.8 °F 37.5 °F 42.8 °F 100% 30.18 in 1.0 mi SSE 9.2 mph - 0.05 in Rain Rain
6:17 PM 42.8 °F 37.0 °F 42.8 °F 100% 30.17 in 1.2 mi SE 10.4 mph - 0.10 in Rain Light Rain
6:27 PM 42.8 °F 36.2 °F 42.8 °F 100% 30.17 in 1.5 mi SSE 12.7 mph - 0.11 in Rain Light Rain
6:36 PM 42.8 °F 35.4 °F 42.8 °F 100% 30.18 in 1.2 mi SSE 15.0 mph - 0.13 in Rain Light Rain
6:45 PM 42.8 °F 40.1 °F 42.8 °F 100% 30.18 in 1.8 mi Variable 4.6 mph - 0.14 in Rain Light Rain
6:56 PM 41.9 °F 34.3 °F 41.9 °F 100% 30.19 in 1.5 mi SSE 15.0 mph 18.4 mph 0.15 in Rain Light Rain
7:09 PM 42.8 °F 38.0 °F 42.8 °F 100% 30.18 in 1.2 mi South 8.1 mph - 0.04 in Rain Light Rain
7:17 PM 42.8 °F 37.5 °F 42.8 °F 100% 30.18 in 0.8 mi South 9.2 mph - 0.06 in Rain Light Rain
7:56 PM 43.9 °F 41.3 °F 43.9 °F 100% 30.18 in 3.0 mi Variable 4.6 mph - 0.07 in   Overcast
8:14 PM 44.6 °F 40.7 °F 44.6 °F 100% 30.17 in 8.0 mi North 6.9 mph - 0.00 in   Overcast
8:56 PM 41.0 °F - 41.0 °F 100% 30.20 in 4.0 mi Calm Calm - 0.00 in   Clear
9:32 PM 41.0 °F - 41.0 °F 100% 30.21 in 6.0 mi Calm Calm - N/A   Mostly Cloudy
9:56 PM 41.9 °F 40.0 °F 41.9 °F 100% 30.23 in 7.0 mi North 3.5 mph - N/A   Mostly Cloudy
10:00 PM 42.8 °F 41.1 °F 42.8 °F 100% 30.22 in 6.0 mi NNW 3.5 mph - N/A   Mostly Cloudy
10:56 PM 43.9 °F 38.8 °F 43.9 °F 100% 30.25 in 5.0 mi NNW 9.2 mph - 0.00 in Rain Light Rain
11:56 PM 41.9 °F 36.3 °F 41.9 °F 100% 30.27 in 7.0 mi NNW 9.2 mph - 0.00 in   Clear